#timestamp,LO_Frequency,Hit 
1501689615.7,286046935.5,N
1501689635.6,286046934.9,N
1501689655.4,286046935.4,N
1501689675.2,286046935.0,N
1501689695.1,286046935.4,N
1501689696.0,286046935.4,N
1501689715.8,286046935.0,N
1501689735.6,286046932.6,N
1501689755.4,286046933.0,N
1501689775.3,286046932.7,N
1501689795.1,286046935.2,N
1501689815.8,286046936.1,N
1501689835.7,286046936.9,N
1501689855.5,286046936.0,N
1501689875.3,286046934.1,N
1501689895.2,286046936.5,N
1501689915.9,286046934.7,N
1501689935.7,286046934.5,N
1501689955.6,286046937.1,N
1501689975.4,286046936.8,N
1501689995.2,286046935.0,N
1501690015.0,286046935.0,N
1501690015.9,286046935.0,N
1501690035.8,286046934.6,N
1501690055.6,286046935.1,N
1501690075.4,286046934.8,N
1501690095.3,286046932.6,N
1501690115.1,286046933.5,N
1501690135.8,286046935.5,N
1501690155.7,286046932.6,N
1501690175.5,286046933.2,N
1501690195.3,286046931.2,N
1501690215.2,286046929.3,N
1501690235.9,286046932.1,N
1501690255.7,286046931.9,N
1501690275.5,286046931.1,N
1501690295.4,286046935.2,N
1501690315.2,286046931.0,N
1501690335.0,286046933.9,N
1501690335.9,286046933.9,N
1501690355.8,286046931.2,N
1501690375.6,286046931.1,N
1501690395.4,286046933.5,N
1501690415.3,286046934.8,N
1501690435.1,286046933.4,N
1501690436.0,286046933.4,N
1501690455.8,286046933.7,N
1501690475.7,286046931.0,N
1501690495.5,286046932.4,N
1501690515.3,286046933.6,N
1501690535.2,286046929.7,N
1501690555.9,286046933.2,N
1501690575.7,286046933.7,N
1501690595.5,286046931.5,N
1501690615.4,286046933.8,N
1501690635.2,286046931.1,N
1501690655.0,286046929.7,N
1501690655.9,286046929.7,N
1501690675.8,286046929.7,N
1501690695.6,286046930.2,N
1501690715.4,286046929.4,N
1501690735.3,286046930.1,N
1501690755.1,286046932.4,N
1501690756.0,286046932.4,N
1501690775.8,286046930.4,N
1501690795.7,286046932.4,N
1501690815.5,286046929.4,N
1501690835.3,286046932.1,N
1501690855.1,286046929.4,N
1501690875.9,286046930.1,N
1501690895.7,286046929.9,N
1501690915.5,286046929.6,N
1501690935.4,286046928.3,N
1501690955.2,286046930.5,N
1501690975.0,286046930.0,N
1501690975.9,286046930.0,N
1501690995.8,286046930.3,N
1501691015.6,286046930.8,N
1501691035.4,286046930.3,N
1501691055.3,286046927.7,N
1501691075.1,286046930.5,N
1501691076.0,286046930.5,N
1501691095.8,286046932.4,N
1501691115.7,286046929.6,N
1501691135.5,286046928.3,N
1501691155.3,286046929.7,N
1501691175.1,286046930.4,N
1501691195.9,286046932.3,N
1501691215.7,286046929.5,N
1501691235.5,286046932.4,N
1501691255.4,286046929.6,N
1501691275.2,286046928.1,N
1501691295.0,286046930.7,N
1501691295.9,286046930.7,N
1501691315.8,286046928.2,N
1501691335.6,286046928.8,N
1501691355.4,286046929.8,N
1501691375.3,286046930.4,N
1501691395.1,286046929.7,N
1501691396.0,286046929.7,N
1501691415.8,286046930.1,N
1501691435.7,286046930.0,N
1501691455.5,286046932.3,N
1501691475.3,286046928.1,N
1501691495.1,286046927.8,N
1501691515.9,286046930.3,N
1501691535.7,286046930.7,N
1501691555.5,286046928.3,N
1501691575.4,286046928.2,N
1501691595.2,286046928.3,N
1501691615.0,286046928.9,N
1501691615.9,286046928.9,N
1501691635.8,286046928.8,N
1501691655.6,286046928.7,N
1501691675.4,286046930.8,N
1501691695.3,286046928.1,N
1501691715.1,286046928.4,N
1501691716.0,286046928.4,N
1501691735.8,286046929.2,N
1501691755.6,286046928.9,N
1501691775.5,286046928.8,N
1501691795.3,286046926.2,N
1501691815.1,286046927.6,N
1501691835.9,286046926.1,N
1501691855.7,286046927.2,N
1501691875.5,286046927.2,N
1501691895.4,286046927.2,N
1501691915.2,286046927.4,N
1501691935.0,286046927.1,N
1501691935.9,286046927.1,N
1501691955.8,286046927.0,N
1501691975.6,286046926.5,N
1501691995.4,286046929.2,N
1501692015.7,286046928.6,N
1501692035.5,286046926.6,N
1501692055.4,286046926.8,N
1501692075.2,286046926.8,N
1501692095.0,286046927.1,N
1501692095.9,286046927.1,N
1501692115.8,286046927.2,N
1501692135.6,286046924.9,N
1501692155.4,286046926.8,N
1501692175.3,286046928.8,N
1501692195.1,286046927.3,N
1501692196.0,286046927.3,N
1501692215.8,286046924.6,N
1501692235.7,286046924.5,N
1501692255.5,286046927.1,N
1501692275.3,286046927.4,N
1501692295.2,286046926.5,N
1501692315.9,286046926.1,Y
1501692335.7,286046984.8,N
1501692355.6,286046982.5,N
1501692375.4,286046983.5,N
1501692395.2,286046980.9,N
1501692415.0,286046983.4,N
1501692415.9,286046983.4,N
1501692435.8,286046981.6,N
1501692455.6,286046981.1,N
1501692475.4,286046981.0,N
1501692495.3,286046982.9,N
1501692515.1,286046980.6,N
1501692535.8,286046981.1,N
1501692555.7,286046981.0,N
1501692575.5,286046981.1,N
1501692595.3,286046983.5,N
1501692615.2,286046983.2,N
1501692635.9,286046981.3,N
1501692655.7,286046981.9,N
1501692675.5,286046979.4,N
1501692695.4,286046982.0,N
1501692715.2,286046979.4,N
1501692735.0,286046981.5,N
1501692735.9,286046981.5,N
1501692755.8,286046979.4,N
1501692775.6,286046981.9,N
1501692795.4,286046981.2,N
1501692815.3,286046981.9,N
1501692835.1,286046981.3,N
1501692836.0,286046981.3,N
1501692855.8,286046978.9,N
1501692875.7,286046979.4,N
1501692895.5,286046979.8,N
1501692915.3,286046981.6,N
1501692935.1,286046981.4,N
1501692955.9,286046980.9,N
1501692975.7,286046980.6,N
1501692995.5,286046980.7,N
1501693015.4,286046981.6,N
1501693035.2,286046980.8,N
1501693055.0,286046981.9,N
1501693055.9,286046981.9,N
1501693075.8,286046981.3,N
1501693095.6,286046982.0,N
1501693115.4,286046981.6,N
1501693135.3,286046979.3,N
1501693155.1,286046981.8,N
1501693156.0,286046981.8,N
1501693175.8,286046981.6,N
1501693195.7,286046979.8,N
